Content
SEND FEEDBACK

Daily
Averages
Monthly
Summary
United States of America

AGAT, GUAM


Home > North America > United States > Guam
Elevation: 364 feet     Latitude: 13 33N     Longitude: 144 50E

WEATHER
 
SELECT A DAY
Number of Records: 209,285;   Date Range: 1/1/95 - 9/16/14
 
SHARE

PRINT THIS DATA

[ ← Previous Day ]
WEATHER ALMANAC - JULY 8, 2013
[ Next Day → ]
[ °C ]   °F
We're sorry. There is no daily almanac available for Agat, Guam on July 8, 2013.
WEATHER BY HOUR - JULY 8, 2013
[ °C ]   °F
Local TimeTemperatureDewpointHumidityBarometerVisibilityWind DirectionWind SpeedGust SpeedPrecipitationEventsConditions
1:54 AM79.0 °F73.9 °F84 %29.81 in10.0 miCalmClear
2:23 AM78.8 °F73.4 °F83 %29.82 in10.0 miCalmPartly Cloudy
2:54 AM79.0 °F73.9 °F84 %29.80 in10.0 miCalmClear
3:54 AM79.0 °F73.9 °F84 %29.79 in10.0 miSouth (180°)3.5 mphClear
4:54 AM79.0 °F73.9 °F84 %29.79 in10.0 miSSE (160°)3.5 mphClear
5:54 AM79.0 °F73.9 °F84 %29.80 in10.0 miSouth (180°)3.5 mphClear
6:54 AM80.1 °F75.0 °F85 %29.82 in10.0 miSSW (210°)3.5 mphClear
7:54 AM84.0 °F75.9 °F76 %29.83 in10.0 miWSW (240°)3.5 mphClear
8:54 AM86.0 °F78.1 °F77 %29.82 in10.0 miSW (230°)5.8 mphScattered Clouds
9:32 AM84.2 °F77.0 °F79 %29.84 in10.0 miWSW (250°)6.9 mphMostly Cloudy
9:54 AM84.9 °F77.0 °F77 %29.83 in10.0 miSW (230°)4.6 mphMostly Cloudy
10:19 AM84.2 °F75.2 °F74 %29.85 in2.5 miWNW (300°)8.1 mph0.00 inRainLight Rain
10:28 AM84.2 °F77.0 °F79 %29.85 in5.0 miWSW (240°)5.8 mph0.05 inRainLight Rain
10:54 AM84.9 °F75.0 °F72 %29.83 in10.0 miSSW (210°)4.6 mph0.05 inMostly Cloudy
11:54 AM88.0 °F75.0 °F65 %29.81 in10.0 miSSW (200°)9.2 mphPartly Cloudy
12:54 PM89.1 °F75.9 °F65 %29.79 in10.0 miWSW (240°)10.4 mphScattered Clouds
1:54 PM88.0 °F75.0 °F65 %29.78 in10.0 miWSW (240°)10.4 mphScattered Clouds
2:54 PM90.0 °F73.9 °F59 %29.77 in10.0 miWSW (250°)12.7 mphScattered Clouds
3:54 PM89.1 °F73.9 °F61 %29.75 in10.0 miWSW (240°)11.5 mphPartly Cloudy
4:54 PM87.1 °F75.0 °F67 %29.75 in10.0 miSW (230°)6.9 mphPartly Cloudy
5:54 PM86.0 °F75.0 °F70 %29.76 in10.0 miSSW (210°)5.8 mphPartly Cloudy
6:54 PM84.9 °F75.0 °F72 %29.78 in10.0 miSouth (180°)4.6 mphPartly Cloudy
7:54 PM84.0 °F75.0 °F74 %29.78 in10.0 miSouth (190°)4.6 mphPartly Cloudy
8:54 PM82.9 °F75.9 °F79 %29.81 in10.0 miSouth (170°)3.5 mphScattered Clouds
9:54 PM82.9 °F75.9 °F79 %29.81 in10.0 miSouth (190°)3.5 mphClear
10:54 PM82.9 °F75.9 °F79 %29.81 in10.0 miSSE (160°)3.5 mphClear
11:54 PM82.0 °F75.9 °F82 %29.81 in10.0 miSouth (190°)3.5 mphPartly Cloudy
Hourly data recorded from PGUM, located miles away from Agat, Guam







STORIES FROM OUR PARTNERS